Location: *
(46.1866°S, 178.5290°W)
Time: 10:00:07
(UTC+00:00)

Cosmos 858 Rocket - Pass Details

Date: 19 May 2021
Orbit: 755 x 775 km, 74.0° (Epoch: 14 June)

Event Time Altitude Azimuth Distance (km) Brightness Sun altitude
Rises 06:49:47 0° 201° (SSW) 3,258 8.0 -24.3°
Reaches altitude 10° 06:52:11 10° 199° (SSW) 2,323 7.2 -24.7°
Enters shadow 06:57:18 76° 135° (SE) 795 4.3 -25.6°
